Regional Weather Roundup
Issued by NWS Sioux Falls, SD

Home | Current Version | Previous Version | Graphics & Text | Print | Product List | Glossary Off
Versions: 1 2 3 4 5 6 7 8 9 10 11 12 13 14 15 16 17 18 19 20 21 22 23 24 25 26 27 28 29 30 31 32 33 34 35 36 37 38 39 40 41 42 43 44 45 46 47 48 49 50

000
ASUS43 KFSD 281902
RWRFSD

WEATHER ROUNDUP FOR SE SOUTH DAKOTA/SW MINNESOTA/NW IOWA
NATIONAL WEATHER SERVICE SIOUX FALLS SD
200 PM CDT THU MAY 28 2015

NOTE: "FAIR" INDICATES FEW OR NO CLOUDS BELOW 12,000 FEET WITH NO
SIGNIFICANT WEATHER AND OR OBSTRUCTIONS TO VISIBILITY.


SDZ038>040-050-052>070-282000-
SOUTHEAST SOUTH DAKOTA

CITY           SKY/WX    TMP DP  RH WIND       PRES   REMARKS
BROOKINGS      MOSUNNY   79  61  53 S22G30    29.95F
CHAMBERLAIN    PTSUNNY   79  58  47 S14G21    29.88S
HURON            N/A    N/A N/A N/A MISG      29.87F
MADISON        FAIR      77  61  57 S22G28    29.95S
MITCHELL       MOSUNNY   84  59  42 S17G28    29.89F
SIOUX FALLS    MOSUNNY   81  58  45 S18G25    29.95F
WINNER         FAIR      83  56  39 S14       29.89F
YANKTON        MOSUNNY   82  59  44 SE17      29.92S
$$

MNZ071-072-080-081-089-090-097-098-282000-
SOUTHWEST MINNESOTA

CITY           SKY/WX    TMP DP  RH WIND       PRES   REMARKS
FAIRMONT       MOSUNNY   79  52  38 S22G29    30.02F
JACKSON        MOSUNNY   81  50  34 S18G25    30.03F
LUVERNE        SUNNY     82  46  28 S17G23    29.98F
MARSHALL       PTSUNNY   82  48  30 S22G30    29.95F
MONTEVIDEO     CLOUDY    79  52  38 SW14G21   29.95F
REDWOOD FALLS  PTSUNNY   83  49  30 S21G28    29.96F
TRACY          MOSUNNY   83  49  31 S21G26    29.97F
WINDOM         MOSUNNY   81  48  32 S16G26    30.01F
WORTHINGTON    MOSUNNY   81  48  32 S20G25    30.00F
$$

IAZ001>003-012>014-020>022-031-032-NEZ013-014-SDZ071-282000-
NORTHWEST IOWA

CITY           SKY/WX    TMP DP  RH WIND       PRES   REMARKS
DENISON        CLOUDY    73  63  68 S14G21    30.01S
ESTHERVILLE    MOSUNNY   77  54  44 S24G31    30.03F
SIOUX CITY     CLOUDY    75  59  57 S15       30.00S
SPENCER        MOSUNNY   81  53  37 S20       30.02F
$$

ABBREVIATIONS USED IN REMARKS
   TC - TEMPERATURE IN CELSIUS
  WCI - WIND CHILL INDEX
   HX - HEAT INDEX
  VSB - VISIBILITY




USA.gov is the U.S. government's official web portal to all federal, state and local government web resources and services.